Showing default

ION SCV-007, 55060

Orbit data source: Space-Track

ION SCV-007, 55060 is a payload satellite owned by D-ORBIT (IT) in SSO that was launched on Tue, 03 Jan 2023 UTC via an FALCON 9 launch vehicle from the Air Force Eastern Test Range (AFETR). Payload-class satellites include a variety of spacecraft equipped with specific instruments for various scientific and technological missions. These include communications satellites like Starlink; space stations such as the ISS; scientific satellites like the Hubble; Earth observation satellites from companies like Planet Labs, Umbra, and HawkEye 360; GPS; miniature CubeSats for education and research; and military/defense satellites.

Loading next visibility...
Identifier
55060, 2023-001BD
Orbit
SSO
Country
Flag of ITIT
Related business
Manufacturer
D-ORBIT
Mission
Operational Commercial Technology
Bus & Motor
ION-SC, PM200
Mass
220 kg wet, 150 kg dry
Launch date (UTC)
2023-01-03 (3 years ago)
Launch vehicle
FALCON 9
Launch site
Air Force Eastern Test Range (AFETR)
Object type
Payload
Rocket body
Debris
Shape & HBR
Box, 0.2 m
Radar Cross Section
0.240 m², Large (>1 m²)

Expand to show TLE details & history
Last TLE update: 10 hours ago

TLE from 10 hours ago
0 ION SCV-007
1 55060U 23001BD  25286.94124005  .00000776  00000-0  11662-3 0  9999
2 55060  97.9365 349.4227 0013537  55.3463 304.9021 14.77203686149897
Epoch: 2025-10-13T22:35Z
TLE epoch observation values (Epoch: 2025-10-13T22:35:23.140Z)
Latitude
-0.00004°
Longitude
-12.16051°
Altitude
635.754 km
Speed
7.543 km/s
True Right ascension
23h 17m 41s
True Declination
0° 00' 00"
Sunlit
Object was in full shadow at epoch
Visualization orbit readout
Latitude
Unknown
Longitude
Unknown
Altitude
Unknown
Speed
Unknown
Apparent Right ascension
Unknown
Apparent Declination
Unknown
Sunlit
N/A
Visualization observer readout
Local Sidereal Time
02:52:12
Azimuth
Unknown
Elevation
Unknown
Doppler factor
Unknown
Orbital elements
Apogee altitude
644.705 km
Perigee altitude
625.717 km
Semi-major axis
7,013.348 km
Eccentricity
0.00135
Inclination
97.9365°
RAAN
349.4227°
Arg. of periapsis
55.3463°
True anomaly
304.77476°
Mean anomaly
304.9021°
Eccentric anomaly
304.83844°
Mean motion
3.69535 °/min
Orbital period
97.42 mins
BSTAR
0.00011662
Loading maneuver chart data...
Computing Atmospheric mass density...
Loading historical data...
Loading historical data...
Loading historical data...
Loading historical data...
Loading historical data...
Loading historical data...
Loading historical data...

Documentation

Showing up to 5 results
|